User: anonymous   Login
Location: Unspecified
(0.0000°N, 0.0000°E)
Time: 05:02:31
(UTC+00:00)
Language:

Injun/Solrad 3 - Orbit

View from above orbital plane
View from above orbital plane
View from above satellite
View from above satellite

Ground track
Ground track

The orbit data is extracted from the following two-line orbital elements,

1 00117U 61015B   18052.55698127 -.00000057  00000-0  15907-4 0  9990
2 00117  66.8112 207.4707 0084504 262.6188  96.5281 13.89821330872349
Epoch (UTC): 21 February 2018 13:22:03
Eccentricity: 0.0084504
inclination: 66.8112°
perigee height: 867 km
apogee height: 991 km
right ascension of ascending node: 207.4707°
argument of perigee: 262.6188°
revolutions per day: 13.89821330
mean anomaly at epoch: 96.5281°
orbit number at epoch: 87234

The dashed part of the orbit path shows where the satellite is in the earth's shadow,  

DLR